Погода Винницы

Погода Винницы : погода сейчас, прогноз погоды и архив. Всё, что Вы хотите узнать о погоде Винницы!

Поиск расширенной информации на нашем сайте:

Другие новости

Новости СМИ2

Главная страница сайта

Новости сайта

03.07.2017

Напоминаем, что на нашем специализированном сайте Метеоцентр.Азия вы можете получить высокодетализированные автоматические прогнозы погоды по пунктам России, СНГ и мира в авиационном формате (включающие направление и скорость ветра, видимость, явления погоды, количество и форму облачности, нижнюю и верхнюю границу облачности).


Погода Винницы - сегодня

Время (UTC), дата Ветер
(°,м/с) 
Видим.   Явления Облачность Т
(°С)
Тd
(°С)
f(%) Тe
(°С)
Pmin
(гПа)
dP
(гПа)
Po
(мм)
O2
(г/м3)
Тmin Tmax R s Состояние
почвы
09 14.02.18 190 (Ю) 20000 м    5/0 верхняя 
[Ci fib]
-8.3 -11.6 77 -10  1031.2  1.5  762  318           
12 14.02.18 200 (Ю) 20000 м    1/0 верхняя 
[Ci fib]
-3.8 -9.6 64 -7  1030.9  762  312           
15 14.02.18 160 (Ю) 50000 м    3/0 верхняя 
[Ci fib]
-7.1 -10.4 77 -9  1032.1  763  317           
21 14.02.18 тихо ()   50000 м    ясно 
-14.9 -15.5 95 -15  1034.1  0.7  764  327           
00 15.02.18 080 (В) 50000 м    ясно 
-17.2 -18.4 90 -17  1035  0.8  765  330           
09 15.02.18 140 (ЮВ) 20000 м    8/0 верхняя 
[Ci fib]
-9.3 -12.7 76 -9  1035.4  0.4  765  321           
12 15.02.18 160 (Ю) 20000 м    5/0 верхняя 
[Cs]
-6.5 -10.9 71 -6  1034.4  -0.9  765  317           
15 15.02.18 160 (Ю) 50000 м    3/0 средняя, верхняя 
[Ac trans|Ci fib]
-8.8 -11.5 81 -10  1033.8  -0.7  764  319           
21 15.02.18 тихо ()   50000 м    5/0 средняя, верхняя 
[Ac trans|Ci fib]
-14.3 -15.3 92 -14  1032.6  -0.9  763  326           
00 16.02.18 тихо ()   50000 м    8/0 средняя, верхняя 
[Ac trans|Ci fib]
-13.8 -14.7 93 -14  1031.6  -0.9  762  325           
21 16.02.18 тихо ()   17000 м  слаб. снег  10/0 средняя 
[As op]
-7.7 -8.7 93 -8  1026.8  0.1  759  316           
03 17.02.18 050 (СВ) 17000 м  слаб. снег  10/8 400 м средняя 
[Frnb|As op]
-7.4 -8.1 95 -7  1025.1  -1.1  758  315  -9.5    0.3     
09 17.02.18 160 (Ю) 20000 м  {снег}  10/0 средняя 
[As op]
-5 -6.5 89 -6  1023.7  -0.6  757  311           
09 18.02.18 тихо ()   17000 м  слаб. снег  10/0 средняя 
[As op]
-4.9 -6.9 86 -5  1021.8  0.2  756  311           
21 18.02.18 030 (СВ) 50000 м    10/10 360 м 
[St]
-6.2 -7 94 -6  1020.8  -0.3  755  312           
03 19.02.18 020 (С) 18000 м  слаб. снег  10/10 360 м 
[Frnb]
-6.8 -7.5 95 -8  1020.1  -0.4  754  312  -6.8    0.2     
21 19.02.18 020 (С) 19000 м  слаб. снег  10/0 средняя 
[As op]
-10.7 -11.4 95 -11  1021.8  0.1  755  318           
09 20.02.18 030 (СВ) 20000 м  {снег}  3/3 1000 м 
[Sc]
-8.9 -12.3 76 -13  1022.6  0.9  756  316           
21 20.02.18 330 (СЗ) 50000 м    9/9 1260 м 
[Sc]
-10.8 -12.5 87 -11  1023.6  757  319           
03 21.02.18 340 (С) 18000 м  слаб. снег  10/10 300 м 
[Frnb]
-11.1 -12.7 88 -13  1024.3  0.3  757  319  -12.9    0.0     
21 21.02.18 260 (З) 50000 м    ясно 
-19.1 -20.3 90 -22  1027.5  0.6  759  331           
00 22.02.18 260 (З) 50000 м    ясно 
-22 -23.7 86 -22  1028.1  0.4  760  335           
09 22.02.18 240 (ЮЗ) 20000 м    8/0 средняя 
[Ac und]
-13.6 -15.3 87 -16  1026.8  -0.7  759  323           
12 22.02.18 260 (З) 20000 м    8/0 средняя 
[Ac und]
-8.4 -11.7 77 -11  1025.4  -1.1  758  316           
21 22.02.18 250 (З) 15000 м  слаб. снег  10/0 средняя 
[Ac As]
-11.6 -12.7 92 -11  1025.2  758  320           
Время (UTC), дата Ветер
(°,м/с) 
Видим.   Явления Облачность Т
(°С)
Тd
(°С)
f(%) Тe
(°С)
Pmin
(гПа)
dP
(гПа)
Po
(мм)
O2
(г/м3)
Тmin Tmax R s Состояние
почвы

Для получения пояснительной информации подведите курсор к названию столбца.

ПОГОДА Винницы - архив

Всё, что Вы хотите узнать о погоде Винницы - удобно и подробно!

Выберите нужную дату (начиная с 1 января 2015* года) и нажмите кнопку "Найти".
Будут отображены архивные сводки погоды по пункту Винницы, начиная с указанной даты.


Отображать данные в формате CSV (для использования в таблицах Excel)


Внимание! Наш архив погоды предназначен исключительно для личного некоммерческого использования в познавательных целях. Если Вам необходимы официальные справки о состоянии погоды (для производственных, юридических, коммерческих и т.п. целей), обращайтесь в органы Росгидромета.

*Примечание: данная дата относится к архиву по метеостанциям СССР (Россия, СНГ, Балтия).
Архив по метеостанциям Зарубежной Европы и Азии (кроме Китая) хранится 10 дней, по другим регионам земного шара (Китай, Африка, Америка, Австралия, Океания) - 1 день.

Винницы - район местоположения метеостанции


Название, широта, долгота, высота метеостанции:
Винницы 60.6°ш. 34.8°д. 111 м над ур. моря [Российская Федерация]

Дополнительная информация

В oтличие oт бoльшинства пoгoдных сайтoв мы публикуем пoдрoбную метеoинфoрмацию в детальнoм прoфессиoнальнoм фoрмате.

Характеристики температуры и влажнoсти вoздуха измеряются на высoте 2 м в тени вдали oт зданий и деревьев.
Скoрoсть ветра измеряется на высoте 10 м (на урoвне рoста челoвека скoрoсть ветра ниже в 1.5-2 раза). Если метеoстанция нахoдится в гoрoде или в лесу, тo скoрoсть ветра занижена на 2-4 м/с пo сравнению с oткрытым местoм. Скoрoсть ветра над акватoриями крупных рек и oзёр, а также на вершинах хoлмoв на 2-5 м/с выше, чем в oбычных услoвиях.
Атмoсфернoе давление в разных тoчках местнoсти мoжет значительнo oтличаться oт давления на метеoстанции, в зависимoсти oт услoвий рельефа (при пoдъёме на 10 м давление пoнижается примернo на 1 мм рт.ст.).